sat.trackr.live / text

‹ back to catalog

STARLINK-36489

NORAD 67328 · 2026-002Z

PAYLOAD ACTIVE UNKNOWN

§ Identity

Operator
Country
US
Launch date
2026-01-04
Launch site
AFETR
Launch vehicle
Mass (kg)
RCS (m²)

Purposes: comms

External: N2YO · Heavens-Above · Gunter

§ Orbital elements

Epoch: 2026-05-24T15:33:18.034560Z

Period
94.27 min
Inclination
43.0027°
Eccentricity
0.0001377
Mean motion
15.27588506 rev/d
Perigee alt
482.1 km
Apogee alt
484.0 km
Semi-major
6,861.2 km
B*
5.5738e-4
RAAN
256.4803°
Arg perigee
290.2913°
Mean anomaly
69.7791°
Rev number
2,285

§ Raw data

STARLINK-364891 67328U 26002Z   26144.64812540  .00015111  00000+0  55738-3 0  99922 67328  43.0027 256.4803 0001377 290.2913  69.7791 15.27588506 22859

JSON: /api/v1/satellites/67328 · /tle

For live sub-satellite position, see the globe view (requires WebGL).

§ Visibility from observer

Set your observer location to see the next 7 days of passes ≥ 10°. The values pass through the URL so the page stays shareable.

No JS? Fill the form by hand. The geolocation button needs JavaScript.